[[{"header":{"parameterUnit":"m.s-1","parameterCategory":1,"la1":30.2991,"la2":30.254,"lo1":-89.0895,"lo2":-89.0444,"dy":0.0017,"dx":0.0017,"nx":28,"ny":28,"refTime":"2025-08-15T09:00:00:Z","depth":0,"parameterNumber":2,"parameterNumberName":"U-component_of_WINDS"},"data":[0,0,0,0,0,0,0,0,0,0,0,0,0,0,0,0,0,0,0,0,0,0,0,0,0,0,0,0,0,0,0,0,0,0,0,0,0,0,0,0,0,0,0,0,0,0,0,0,0,0,0,0,0,0,0,0,0,0,0.5888,0.5889,0,0.5971,0.5972,0.5973,0.5976,0.5975,0.5974,0.5973,0.6063,0.6066,0.607,0,0,0,0,0,0,0,0,0,0,0,0,0,0.5735,0.5737,0.5888,0.5889,0.589,0.5971,0.5972,0.5974,0.5976,0.5975,0.5973,0.5972,0.6062,0.6066,0.607,0,0,0,0,0,0,0,0,0,0,0,0,0,0.5808,0.5738,0.5887,0.5901,0.5903,0.5971,0.5972,0.5974,0.5976,0.5975,0.5973,0.5972,0.6061,0.6066,0.6071,0.6133,0,0,0.6086,0.6088,0,0,0,0,0,0,0,0,0.5804,0.5814,0.5898,0.59,0.5902,0.5961,0.5952,0.6027,0.5977,0.5948,0.5973,0.5971,0.6031,0.6038,0.6058,0.6137,0.6141,0.6087,0.609,0.6092,0.6093,0,0,0,0,0,0,0,0.5799,0.581,0.5921,0.5899,0.5902,0.5904,0.5913,0.5966,0.5998,0.5951,0.5951,0.5961,0.6032,0.6053,0.606,0.6142,0.6086,0.6091,0.6094,0.6096,0.6278,0.628,0,0,0,0,0,0,0.579,0.5806,0.5918,0.5923,0.5848,0.5908,0.5918,0.5944,0.5997,0.6003,0.5962,0.5961,0.6045,0.6054,0.6063,0.614,0.6092,0.6096,0.6099,0.6276,0.6279,0.6281,0,0,0,0,0,0,0.5787,0.58,0.5915,0.5865,0.5879,0.5912,0.5942,0.5947,0.5967,0.6005,0.6011,0.5977,0.6044,0.6056,0.6115,0.6143,0.6099,0.6103,0.6274,0.6277,0.628,0.6294,0,0,0,0,0,0,0.5783,0.5799,0.5822,0.5865,0.5882,0.5964,0.5944,0.5949,0.5975,0.5974,0.6021,0.6027,0.6044,0.6108,0.612,0.6149,0.6107,0.6272,0.6276,0.6279,0.6291,0.6297,0.6302,0,0,0,0,0,0.5777,0.5823,0.5823,0.5837,0.5911,0.5966,0.5976,0.5992,0.5978,0.6002,0.6026,0.6026,0.6138,0.6114,0.6128,0.6159,0.627,0.6275,0.6278,0.6289,0.6296,0.6301,0,0,0,0,0,0,0.5784,0.5829,0.5829,0.5891,0.5924,0.5966,0.5997,0.5999,0.6038,0.6036,0.6056,0.6067,0.6126,0.6148,0.6121,0.6222,0.6203,0.621,0.6206,0.6212,0.6218,0.6211,0.6111,0,0,0,0,0,0.5792,0.5832,0.587,0.592,0.5937,0.5964,0.5989,0.5998,0.6035,0.6049,0.6078,0.6115,0.6158,0.6186,0.6228,0.6294,0.6305,0.6322,0.6328,0.6332,0.6338,0.6376,0.6384,0.6294,0.6294,0.6294,0,0,0.5811,0.584,0.5864,0.5923,0.595,0.5992,0.5976,0.6021,0.6053,0.6057,0.6114,0.6137,0.6179,0.6242,0.6271,0.6263,0.6365,0.6337,0.634,0.6344,0.6381,0.6389,0.6397,0.6297,0.6296,0.6296,0,0,0.5866,0.5891,0.5937,0.5964,0.6005,0.6023,0.6033,0.6075,0.609,0.6148,0.6152,0.6191,0.6265,0.6295,0.632,0.6386,0.6388,0.64,0.6427,0.6464,0.6471,0.6477,0.6502,0.651,0.6405,0.6406,0.6406,0,0.5884,0.5945,0.596,0.6005,0.6031,0.6035,0.6082,0.6108,0.6161,0.618,0.6169,0.6262,0.6291,0.6362,0.6378,0.6398,0.6412,0.6395,0.6468,0.6475,0.6481,0.6505,0.6514,0.6407,0.6407,0.6406,0.6406,0,0.5966,0.6009,0.6041,0.6091,0.612,0.6166,0.6189,0.6218,0.6225,0.6244,0.6304,0.6338,0.6388,0.6405,0.6413,0.6477,0.6471,0.6464,0.6444,0.6491,0.6513,0.6523,0.6408,0.6408,0.6408,0.6407,0,0,0.6028,0.6085,0.6097,0.612,0.6165,0.6199,0.6246,0.6293,0.6318,0.6354,0.6395,0.6457,0.6451,0.648,0.6491,0.6523,0.6574,0.6512,0.6513,0.6523,0.6649,0.6654,0.6664,0.6575,0.6577,0.6579,0.6645,0,0.6088,0.6169,0.6184,0.6256,0.6297,0.6301,0.6342,0.6375,0.6394,0.6433,0.6455,0.6499,0.6487,0.6505,0.6536,0.6561,0.66,0.6557,0.6615,0.6617,0.6605,0.6676,0.6682,0.6743,0.6654,0.6656,0.6657,0,0.617,0.6207,0.6282,0.6323,0.6341,0.6377,0.6421,0.6457,0.6496,0.6508,0.6539,0.6547,0.6597,0.6575,0.6645,0.6615,0.664,0.6656,0.6659,0.6666,0.664,0.6686,0.6763,0.6773,0.6671,0.667,0.6669,0,0.6208,0.6278,0.6332,0.6351,0.64,0.6425,0.6447,0.6484,0.6511,0.6551,0.6569,0.6614,0.6639,0.6675,0.6695,0.6677,0.6764,0.6743,0.6777,0.6776,0.6796,0.6794,0.6879,0.681,0.681,0.681,0.681,0,0.6275,0.6321,0.635,0.6383,0.6436,0.6453,0.6505,0.6526,0.6559,0.6598,0.6604,0.6641,0.6665,0.6706,0.6722,0.6778,0.679,0.6802,0.6806,0.6802,0.68,0.6819,0.6815,0.6812,0.6812,0.6811,0.6811,0,0.6327,0.6348,0.6408,0.6448,0.646,0.6497,0.6532,0.6566,0.6585,0.6634,0.6647,0.6678,0.6726,0.6749,0.6809,0.682,0.6884,0.6885,0.6871,0.6873,0.6905,0.6902,0.7006,0.702,0.6941,0.6941,0.6942,0,0.6368,0.6404,0.6448,0.6474,0.6496,0.6538,0.6565,0.6584,0.6613,0.666,0.6688,0.6736,0.6775,0.6852,0.6881,0.6927,0.693,0.6963,0.6937,0.6932,0.6931,0.6929,0.6933,0.6968,0.6968,0.6969,0.697,0,0.644,0.6449,0.6488,0.6531,0.6563,0.6599,0.6633,0.6654,0.6679,0.6711,0.676,0.679,0.6851,0.6899,0.6947,0.6971,0.6975,0.6977,0.6988,0.6984,0.6975,0.6981,0.6884,0.6975,0.6975,0.6974,0.6974,0.6974,0.6489,0.6521,0.6557,0.6601,0.6628,0.6661,0.6694,0.6717,0.6758,0.6808,0.6817,0.6868,0.6907,0.6972,0.6997,0.7039,0.7032,0.7047,0.7051,0.7054,0.7056,0.6967,0.7048,0.7048,0.7048,0.7048,0.7047,0,0.6561,0.6585,0.6625,0.6672,0.6707,0.6706,0.6744,0.6774,0.6819,0.6854,0.6892,0.6948,0.6995,0.7027,0.7075,0.7103,0.7106,0.7115,0.7113,0.7119,0.706,0.7046,0.7111,0.7111,0.7111,0.7111,0.7111,0.7111,0.6603,0.6658,0.6671,0.6739,0.6763,0.6813,0.6835,0.6865,0.6893,0.6955,0.6993,0.7014,0.7048,0.7098,0.7142,0.715,0.7168,0.7177,0.7186,0.713,0.7123,0.7117,0.7104,0.718,0.7181,0.7241,0.7242,0.7242]},{"header":{"parameterUnit":"m.s-1","parameterCategory":1,"la1":30.2991,"la2":30.254,"lo1":-89.0895,"lo2":-89.0444,"dy":0.0017,"dx":0.0017,"nx":28,"ny":28,"refTime":"2025-08-15T09:00:00:Z","depth":0,"parameterNumber":3,"parameterNumberName":"V-component_of_WINDS"},"data":[0,0,0,0,0,0,0,0,0,0,0,0,0,0,0,0,0,0,0,0,0,0,0,0,0,0,0,0,0,0,0,0,0,0,0,0,0,0,0,0,0,0,0,0,0,0,0,0,0,0,0,0,0,0,0,0,0,0,1.5849,1.5848,0,1.5825,1.5824,1.5824,1.5764,1.5762,1.5761,1.576,1.5733,1.5734,1.5734,0,0,0,0,0,0,0,0,0,0,0,0,0,1.5838,1.5839,1.5849,1.5848,1.5848,1.5825,1.5824,1.5824,1.5764,1.5762,1.5761,1.5759,1.5733,1.5734,1.5734,0,0,0,0,0,0,0,0,0,0,0,0,0,1.5831,1.5839,1.5849,1.5815,1.5812,1.5825,1.5824,1.5824,1.5764,1.5762,1.576,1.5759,1.5733,1.5734,1.5734,1.5777,0,0,1.5737,1.5737,0,0,0,0,0,0,0,0,1.5832,1.5832,1.5821,1.5818,1.5814,1.5795,1.5811,1.5808,1.5765,1.5782,1.576,1.5758,1.5755,1.5754,1.5754,1.5776,1.5774,1.5737,1.5737,1.5737,1.5738,0,0,0,0,0,0,0,1.5832,1.5832,1.5839,1.582,1.5817,1.58,1.5797,1.581,1.578,1.5781,1.5776,1.5774,1.5753,1.5753,1.5753,1.5774,1.5737,1.5737,1.5738,1.5738,1.5824,1.5826,0,0,0,0,0,0,1.5838,1.5833,1.584,1.5838,1.5818,1.5802,1.5798,1.5803,1.5779,1.5774,1.5776,1.5772,1.5753,1.5752,1.5751,1.5795,1.5737,1.5738,1.5738,1.5822,1.5824,1.5826,0,0,0,0,0,0,1.5838,1.5839,1.5841,1.5835,1.5833,1.5804,1.581,1.5804,1.5804,1.5776,1.577,1.5782,1.5751,1.575,1.577,1.5794,1.5738,1.5739,1.582,1.5823,1.5825,1.5886,0,0,0,0,0,0,1.5838,1.584,1.5857,1.5835,1.5834,1.5861,1.5812,1.5805,1.5805,1.5799,1.578,1.5775,1.575,1.5769,1.5771,1.5794,1.5739,1.5817,1.5821,1.5824,1.5882,1.5891,1.5898,0,0,0,0,0,1.5838,1.5876,1.5858,1.5859,1.5855,1.5863,1.5862,1.5833,1.5808,1.5823,1.5805,1.5775,1.5792,1.5772,1.5773,1.5796,1.5816,1.582,1.5824,1.5878,1.5889,1.5898,0,0,0,0,0,0,1.5901,1.5872,1.5852,1.5885,1.5876,1.5853,1.5872,1.5846,1.5845,1.5839,1.5803,1.5799,1.5822,1.5812,1.579,1.5834,1.5798,1.5803,1.5839,1.5849,1.5857,1.5858,1.574,0,0,0,0,0,1.5918,1.5928,1.5903,1.5933,1.593,1.5902,1.5904,1.5882,1.5872,1.5868,1.5852,1.5842,1.5844,1.5847,1.5848,1.5881,1.5873,1.5897,1.5906,1.5913,1.5916,1.5928,1.5937,1.584,1.584,1.584,0,0,1.5955,1.594,1.5949,1.5945,1.5936,1.5945,1.5899,1.5912,1.5917,1.587,1.5886,1.5874,1.586,1.5885,1.5896,1.5877,1.5941,1.5918,1.5924,1.5923,1.5933,1.5942,1.595,1.5843,1.5842,1.5842,0,0,1.6024,1.6017,1.6039,1.603,1.6017,1.5998,1.6003,1.5983,1.5972,1.5988,1.5952,1.5957,1.5964,1.5954,1.595,1.6013,1.5984,1.6015,1.6056,1.6068,1.6076,1.6082,1.6101,1.6108,1.6019,1.6019,1.6019,0,1.6071,1.6084,1.6054,1.6067,1.6064,1.6023,1.6043,1.6037,1.6025,1.6023,1.6003,1.6007,1.5996,1.6015,1.603,1.603,1.6032,1.6015,1.6078,1.6084,1.6089,1.6106,1.6114,1.6022,1.6022,1.6022,1.6021,0,1.6139,1.6148,1.6168,1.6156,1.6156,1.6174,1.6144,1.6148,1.6126,1.6107,1.6122,1.6106,1.6101,1.6105,1.6085,1.6121,1.6109,1.6085,1.6048,1.6102,1.6117,1.6124,1.6027,1.6026,1.6025,1.6024,0,0,1.6247,1.6217,1.6224,1.6217,1.6198,1.6204,1.6218,1.6213,1.6215,1.6208,1.6216,1.6221,1.6196,1.6191,1.6169,1.618,1.6225,1.6153,1.6152,1.6163,1.6259,1.6276,1.6284,1.6207,1.6208,1.6209,1.6259,0,1.6309,1.6332,1.6304,1.6331,1.6337,1.6296,1.6307,1.6296,1.6279,1.628,1.6261,1.6263,1.6233,1.6229,1.6239,1.6218,1.6243,1.6214,1.6211,1.6211,1.6212,1.6293,1.6311,1.6359,1.6265,1.6266,1.6267,0,1.6385,1.638,1.6408,1.6384,1.6385,1.6396,1.6387,1.639,1.6375,1.6361,1.6355,1.6328,1.6337,1.6303,1.6313,1.6294,1.6291,1.6281,1.6282,1.6278,1.624,1.6287,1.6374,1.638,1.6277,1.6276,1.6276,0,1.6456,1.6456,1.6472,1.6467,1.6441,1.6448,1.6438,1.6421,1.6418,1.6411,1.6408,1.6402,1.6397,1.6392,1.6362,1.6342,1.6374,1.634,1.636,1.6361,1.6367,1.6366,1.6451,1.6371,1.6371,1.6371,1.6371,0,1.6526,1.6544,1.6502,1.6512,1.6529,1.6496,1.6513,1.6498,1.6483,1.6487,1.6452,1.6456,1.6419,1.6418,1.6395,1.6404,1.6404,1.6391,1.6384,1.6392,1.6393,1.6387,1.6382,1.6373,1.6373,1.6372,1.6372,0,1.6607,1.6581,1.6594,1.6567,1.6561,1.6574,1.655,1.6556,1.6537,1.6542,1.6541,1.651,1.6506,1.6477,1.6468,1.6452,1.6469,1.6457,1.6474,1.6468,1.6489,1.6486,1.657,1.6578,1.6497,1.6498,1.6499,0,1.6652,1.6664,1.6638,1.6638,1.6628,1.663,1.6626,1.6594,1.6591,1.6573,1.6581,1.6575,1.6568,1.6564,1.654,1.6531,1.6517,1.6547,1.6515,1.6522,1.6512,1.6511,1.651,1.6553,1.6554,1.6555,1.6555,0,1.6733,1.6718,1.6716,1.6707,1.6704,1.6696,1.6686,1.6688,1.6651,1.665,1.6646,1.6641,1.663,1.6623,1.661,1.6597,1.6569,1.6566,1.6569,1.6576,1.6583,1.6575,1.6488,1.6563,1.6562,1.6562,1.6561,1.6561,1.6794,1.6801,1.6783,1.678,1.6769,1.6759,1.6762,1.6742,1.6739,1.6727,1.6708,1.6706,1.6687,1.6667,1.6655,1.6652,1.6636,1.6642,1.6643,1.6644,1.6647,1.6587,1.665,1.665,1.6649,1.6649,1.6649,0,1.6869,1.6855,1.6853,1.6839,1.6835,1.6811,1.6797,1.6795,1.6794,1.6779,1.6773,1.6766,1.6759,1.6733,1.6722,1.6724,1.671,1.6722,1.6719,1.6716,1.6664,1.666,1.6732,1.6732,1.6732,1.6732,1.6732,1.6732,1.6908,1.6918,1.6901,1.6903,1.6889,1.6886,1.688,1.687,1.6857,1.6852,1.6845,1.6829,1.6808,1.6795,1.6786,1.6778,1.6774,1.6789,1.6777,1.6728,1.672,1.6712,1.6708,1.679,1.679,1.6828,1.6829,1.6829]}]]